Year,Month,Day,Hour,Minute,Value (Times are PST for temperature in C)
2010,08,31,00,00,13.40
2010,08,31,00,01,13.40
2010,08,31,00,02,13.40
2010,08,31,00,03,13.40
2010,08,31,00,04,13.40
2010,08,31,00,05,13.40
2010,08,31,00,06,13.40
2010,08,31,00,07,13.40
2010,08,31,00,08,13.40
2010,08,31,00,09,13.50
2010,08,31,00,10,13.50
2010,08,31,00,11,13.50
2010,08,31,00,12,13.50
2010,08,31,00,13,13.50
2010,08,31,00,14,13.60
2010,08,31,00,15,13.60
2010,08,31,00,16,13.60
2010,08,31,00,17,13.60
2010,08,31,00,18,13.60
2010,08,31,00,19,13.60
2010,08,31,00,20,13.60
2010,08,31,00,21,13.60
2010,08,31,00,22,13.60
2010,08,31,00,23,13.60
2010,08,31,00,24,13.60
2010,08,31,00,25,13.70
2010,08,31,00,26,13.70
2010,08,31,00,27,13.70
2010,08,31,00,28,13.70
2010,08,31,00,29,13.70
2010,08,31,00,30,13.70
2010,08,31,00,31,13.70
2010,08,31,00,32,13.70
2010,08,31,00,33,13.70
2010,08,31,00,34,13.70
2010,08,31,00,35,13.70
2010,08,31,00,36,13.70
2010,08,31,00,37,13.70
2010,08,31,00,38,13.70
2010,08,31,00,39,13.70
2010,08,31,00,40,13.70
2010,08,31,00,41,13.70
2010,08,31,00,42,13.70
2010,08,31,00,43,13.70
2010,08,31,00,44,13.70
2010,08,31,00,45,13.70
2010,08,31,00,46,13.70
2010,08,31,00,47,13.70
2010,08,31,00,48,13.70
2010,08,31,00,49,13.70
2010,08,31,00,50,13.70
2010,08,31,00,51,13.70
2010,08,31,00,52,13.70
2010,08,31,00,53,13.80
2010,08,31,00,54,13.80
2010,08,31,00,55,13.80
2010,08,31,00,56,13.80
2010,08,31,00,57,13.80
2010,08,31,00,58,13.80
2010,08,31,00,59,13.80
2010,08,31,01,00,13.80
2010,08,31,01,01,13.80
2010,08,31,01,02,13.70
2010,08,31,01,03,13.70
2010,08,31,01,04,13.70
2010,08,31,01,05,13.70
2010,08,31,01,06,13.70
2010,08,31,01,07,13.70
2010,08,31,01,08,13.70
2010,08,31,01,09,13.70
2010,08,31,01,10,13.70
2010,08,31,01,11,13.70
2010,08,31,01,12,13.70
2010,08,31,01,13,13.70
2010,08,31,01,14,13.70
2010,08,31,01,15,13.70
2010,08,31,01,16,13.60
2010,08,31,01,17,13.60
2010,08,31,01,18,13.60
2010,08,31,01,19,13.60
2010,08,31,01,20,13.50
2010,08,31,01,21,13.50
2010,08,31,01,22,13.50
2010,08,31,01,23,13.50
2010,08,31,01,24,13.50
2010,08,31,01,25,13.50
2010,08,31,01,26,13.50
2010,08,31,01,27,13.50
2010,08,31,01,28,13.50
2010,08,31,01,29,13.50
2010,08,31,01,30,13.50
2010,08,31,01,31,13.50
2010,08,31,01,32,13.50
2010,08,31,01,33,13.60
2010,08,31,01,34,13.60
2010,08,31,01,35,13.60
2010,08,31,01,36,13.60
2010,08,31,01,37,13.60
2010,08,31,01,38,13.60
2010,08,31,01,39,13.60
2010,08,31,01,40,13.60
2010,08,31,01,41,13.60
2010,08,31,01,42,13.70
2010,08,31,01,43,13.70
2010,08,31,01,44,13.70
2010,08,31,01,45,13.70
2010,08,31,01,46,13.70
2010,08,31,01,47,13.70
2010,08,31,01,48,13.70
2010,08,31,01,49,13.70
2010,08,31,01,50,13.70
2010,08,31,01,51,13.70
2010,08,31,01,52,13.80
2010,08,31,01,53,13.80
2010,08,31,01,54,13.80
2010,08,31,01,55,13.80
2010,08,31,01,56,13.80
2010,08,31,01,57,13.80
2010,08,31,01,58,13.80
2010,08,31,01,59,13.80
2010,08,31,02,00,13.80
2010,08,31,02,01,13.80
2010,08,31,02,02,13.80
2010,08,31,02,03,13.80
2010,08,31,02,04,13.80
2010,08,31,02,05,13.80
2010,08,31,02,06,13.80
2010,08,31,02,07,13.80
2010,08,31,02,08,13.80
2010,08,31,02,09,13.80
2010,08,31,02,10,13.80
2010,08,31,02,11,13.80
2010,08,31,02,12,13.80
2010,08,31,02,13,13.80
2010,08,31,02,14,13.80
2010,08,31,02,15,13.80
2010,08,31,02,16,13.80
2010,08,31,02,17,13.80
2010,08,31,02,18,13.80
2010,08,31,02,19,13.80
2010,08,31,02,20,13.80
2010,08,31,02,21,13.80
2010,08,31,02,22,13.80
2010,08,31,02,23,13.80
2010,08,31,02,24,13.80
2010,08,31,02,25,13.90
2010,08,31,02,26,13.90
2010,08,31,02,27,13.90
2010,08,31,02,28,13.90
2010,08,31,02,29,13.90
2010,08,31,02,30,13.90
2010,08,31,02,31,13.90
2010,08,31,02,32,13.90
2010,08,31,02,33,13.90
2010,08,31,02,34,13.90
2010,08,31,02,35,13.80
2010,08,31,02,36,13.80
2010,08,31,02,37,13.80
2010,08,31,02,38,13.80
2010,08,31,02,39,13.80
2010,08,31,02,40,13.80
2010,08,31,02,41,13.80
2010,08,31,02,42,13.80
2010,08,31,02,43,13.80
2010,08,31,02,44,13.80
2010,08,31,02,45,13.80
2010,08,31,02,46,13.80
2010,08,31,02,47,13.80
2010,08,31,02,48,13.90
2010,08,31,02,49,13.90
2010,08,31,02,50,13.90
2010,08,31,02,51,13.90
2010,08,31,02,52,13.90
2010,08,31,02,53,13.90
2010,08,31,02,54,13.90
2010,08,31,02,55,13.90
2010,08,31,02,56,13.90
2010,08,31,02,57,13.90
2010,08,31,02,58,13.90
2010,08,31,02,59,13.90
2010,08,31,03,00,13.90
2010,08,31,03,01,13.90
2010,08,31,03,02,13.90
2010,08,31,03,03,13.90
2010,08,31,03,04,13.90
2010,08,31,03,05,13.90
2010,08,31,03,06,13.90
2010,08,31,03,07,13.90
2010,08,31,03,08,13.90
2010,08,31,03,09,14.00
2010,08,31,03,10,14.00
2010,08,31,03,11,14.00
2010,08,31,03,12,14.00
2010,08,31,03,13,14.00
2010,08,31,03,14,14.00
2010,08,31,03,15,14.00
2010,08,31,03,16,14.00
2010,08,31,03,17,14.00
2010,08,31,03,18,14.00
2010,08,31,03,19,14.00
2010,08,31,03,20,14.00
2010,08,31,03,21,13.90
2010,08,31,03,22,13.90
2010,08,31,03,23,13.90
2010,08,31,03,24,13.80
2010,08,31,03,25,13.80
2010,08,31,03,26,13.70
2010,08,31,03,27,13.70
2010,08,31,03,28,13.70
2010,08,31,03,29,13.70
2010,08,31,03,30,13.60
2010,08,31,03,31,13.60
2010,08,31,03,32,13.60
2010,08,31,03,33,13.60
2010,08,31,03,34,13.50
2010,08,31,03,35,13.50
2010,08,31,03,36,13.50
2010,08,31,03,37,13.50
2010,08,31,03,38,13.50
2010,08,31,03,39,13.50
2010,08,31,03,40,13.50
2010,08,31,03,41,13.50
2010,08,31,03,42,13.50
2010,08,31,03,43,13.40
2010,08,31,03,44,13.40
2010,08,31,03,45,13.40
2010,08,31,03,46,13.40
2010,08,31,03,47,13.40
2010,08,31,03,48,13.30
2010,08,31,03,49,13.30
2010,08,31,03,50,13.30
2010,08,31,03,51,13.30
2010,08,31,03,52,13.30
2010,08,31,03,53,13.30
2010,08,31,03,54,13.30
2010,08,31,03,55,13.30
2010,08,31,03,56,13.30
2010,08,31,03,57,13.30
2010,08,31,03,58,13.30
2010,08,31,03,59,13.30
2010,08,31,04,00,13.30
2010,08,31,04,01,13.30
2010,08,31,04,02,13.30
2010,08,31,04,03,13.30
2010,08,31,04,04,13.30
2010,08,31,04,05,13.20
2010,08,31,04,06,13.20
2010,08,31,04,07,13.10
2010,08,31,04,08,13.10
2010,08,31,04,09,13.00
2010,08,31,04,10,13.00
2010,08,31,04,11,12.90
2010,08,31,04,12,12.80
2010,08,31,04,13,12.80
2010,08,31,04,14,12.80
2010,08,31,04,15,12.70
2010,08,31,04,16,12.70
2010,08,31,04,17,12.60
2010,08,31,04,18,12.60
2010,08,31,04,19,12.50
2010,08,31,04,20,12.50
2010,08,31,04,21,12.40
2010,08,31,04,22,12.40
2010,08,31,04,23,12.30
2010,08,31,04,24,12.30
2010,08,31,04,25,12.30
2010,08,31,04,26,12.30
2010,08,31,04,27,12.30
2010,08,31,04,28,12.30
2010,08,31,04,29,12.30
2010,08,31,04,30,12.30
2010,08,31,04,31,12.30
2010,08,31,04,32,12.20
2010,08,31,04,33,12.20
2010,08,31,04,34,12.20
2010,08,31,04,35,12.20
2010,08,31,04,36,12.10
2010,08,31,04,37,12.10
2010,08,31,04,38,12.10
2010,08,31,04,39,12.10
2010,08,31,04,40,12.10
2010,08,31,04,41,12.10
2010,08,31,04,42,12.10
2010,08,31,04,43,12.10
2010,08,31,04,44,12.10
2010,08,31,04,45,12.10
2010,08,31,04,46,12.10
2010,08,31,04,47,12.10
2010,08,31,04,48,12.10
2010,08,31,04,49,12.10
2010,08,31,04,50,12.10
2010,08,31,04,51,12.10
2010,08,31,04,52,12.10
2010,08,31,04,53,12.10
2010,08,31,04,54,12.10
2010,08,31,04,55,12.10
2010,08,31,04,56,12.10
2010,08,31,04,57,12.10
2010,08,31,04,58,12.10
2010,08,31,04,59,12.10
2010,08,31,05,00,12.10
2010,08,31,05,01,12.10
2010,08,31,05,02,12.10
2010,08,31,05,03,12.10
2010,08,31,05,04,12.10
2010,08,31,05,05,12.00
2010,08,31,05,06,12.00
2010,08,31,05,07,12.00
2010,08,31,05,08,12.00
2010,08,31,05,09,11.90
2010,08,31,05,10,11.90
2010,08,31,05,11,11.90
2010,08,31,05,12,11.90
2010,08,31,05,13,12.00
2010,08,31,05,14,12.00
2010,08,31,05,15,11.90
2010,08,31,05,16,11.90
2010,08,31,05,17,11.90
2010,08,31,05,18,11.90
2010,08,31,05,19,11.80
2010,08,31,05,20,11.80
2010,08,31,05,21,11.80
2010,08,31,05,22,11.80
2010,08,31,05,23,11.80
2010,08,31,05,24,11.80
2010,08,31,05,25,11.80
2010,08,31,05,26,11.70
2010,08,31,05,27,11.70
2010,08,31,05,28,11.70
2010,08,31,05,29,11.70
2010,08,31,05,30,11.70
2010,08,31,05,31,11.70
2010,08,31,05,32,11.70
2010,08,31,05,33,11.70
2010,08,31,05,34,11.70
2010,08,31,05,35,11.70
2010,08,31,05,36,11.70
2010,08,31,05,37,11.70
2010,08,31,05,38,11.70
2010,08,31,05,39,11.60
2010,08,31,05,40,11.70
2010,08,31,05,41,11.70
2010,08,31,05,42,11.70
2010,08,31,05,43,11.70
2010,08,31,05,44,11.70
2010,08,31,05,45,11.70
2010,08,31,05,46,11.70
2010,08,31,05,47,11.70
2010,08,31,05,48,11.70
2010,08,31,05,49,11.60
2010,08,31,05,50,11.60
2010,08,31,05,51,11.60
2010,08,31,05,52,11.60
2010,08,31,05,53,11.60
2010,08,31,05,54,11.60
2010,08,31,05,55,11.60
2010,08,31,05,56,11.60
2010,08,31,05,57,11.60
2010,08,31,05,58,11.60
2010,08,31,05,59,11.60
2010,08,31,06,00,11.60
2010,08,31,06,01,11.60
2010,08,31,06,02,11.60
2010,08,31,06,03,11.50
2010,08,31,06,04,11.40
2010,08,31,06,05,11.40
2010,08,31,06,06,11.40
2010,08,31,06,07,11.40
2010,08,31,06,08,11.40
2010,08,31,06,09,11.40
2010,08,31,06,10,11.40
2010,08,31,06,11,11.40
2010,08,31,06,12,11.40
2010,08,31,06,13,11.40
2010,08,31,06,14,11.40
2010,08,31,06,15,11.40
2010,08,31,06,16,11.40
2010,08,31,06,17,11.40
2010,08,31,06,18,11.40
2010,08,31,06,19,11.40
2010,08,31,06,20,11.40
2010,08,31,06,21,11.40
2010,08,31,06,22,11.30
2010,08,31,06,23,11.30
2010,08,31,06,24,11.30
2010,08,31,06,25,11.30
2010,08,31,06,26,11.20
2010,08,31,06,27,11.20
2010,08,31,06,28,11.20
2010,08,31,06,29,11.20
2010,08,31,06,30,11.20
2010,08,31,06,31,11.20
2010,08,31,06,32,11.20
2010,08,31,06,33,11.20
2010,08,31,06,34,11.20
2010,08,31,06,35,11.20
2010,08,31,06,36,11.20
2010,08,31,06,37,11.20
2010,08,31,06,38,11.20
2010,08,31,06,39,11.20
2010,08,31,06,40,11.20
2010,08,31,06,41,11.20
2010,08,31,06,42,11.10
2010,08,31,06,43,11.10
2010,08,31,06,44,11.10
2010,08,31,06,45,11.10
2010,08,31,06,46,11.10
2010,08,31,06,47,11.10
2010,08,31,06,48,11.10
2010,08,31,06,49,11.10
2010,08,31,06,50,11.10
2010,08,31,06,51,11.10
2010,08,31,06,52,11.10
2010,08,31,06,53,11.10
2010,08,31,06,54,11.10
2010,08,31,06,55,11.10
2010,08,31,06,56,11.10
2010,08,31,06,57,11.10
2010,08,31,06,58,11.10
2010,08,31,06,59,11.10
2010,08,31,07,00,11.10
2010,08,31,07,01,11.10
2010,08,31,07,02,11.10
2010,08,31,07,03,11.10
2010,08,31,07,04,11.10
2010,08,31,07,05,11.10
2010,08,31,07,06,11.10
2010,08,31,07,07,11.10
2010,08,31,07,08,11.10
2010,08,31,07,09,11.00
2010,08,31,07,10,10.90
2010,08,31,07,11,10.90
2010,08,31,07,12,10.90
2010,08,31,07,13,10.90
2010,08,31,07,14,10.90
2010,08,31,07,15,10.90
2010,08,31,07,16,11.10
2010,08,31,07,17,11.10
2010,08,31,07,18,11.10
2010,08,31,07,19,11.10
2010,08,31,07,20,11.10
2010,08,31,07,21,11.10
2010,08,31,07,22,11.10
2010,08,31,07,23,11.10
2010,08,31,07,24,11.10
2010,08,31,07,25,11.00
2010,08,31,07,26,11.10
2010,08,31,07,27,11.10
2010,08,31,07,28,11.10
2010,08,31,07,29,11.10
2010,08,31,07,30,11.10
2010,08,31,07,31,11.10
2010,08,31,07,32,10.90
2010,08,31,07,33,11.00
2010,08,31,07,34,11.10
2010,08,31,07,35,11.00
2010,08,31,07,36,10.90
2010,08,31,07,37,10.90
2010,08,31,07,38,10.90
2010,08,31,07,39,10.90
2010,08,31,07,40,11.00
2010,08,31,07,41,11.10
2010,08,31,07,42,11.00
2010,08,31,07,43,10.90
2010,08,31,07,44,10.90
2010,08,31,07,45,10.90
2010,08,31,07,46,10.90
2010,08,31,07,47,10.90
2010,08,31,07,48,10.90
2010,08,31,07,49,10.90
2010,08,31,07,50,10.90
2010,08,31,07,51,10.90
2010,08,31,07,52,11.00
2010,08,31,07,53,11.00
2010,08,31,07,54,11.10
2010,08,31,07,55,11.10
2010,08,31,07,56,11.10
2010,08,31,07,57,11.10
2010,08,31,07,58,11.10
2010,08,31,07,59,11.10
2010,08,31,08,00,11.10
2010,08,31,08,01,11.10
2010,08,31,08,02,11.10
2010,08,31,08,03,11.10
2010,08,31,08,04,11.00
2010,08,31,08,05,10.90
2010,08,31,08,06,11.10
2010,08,31,08,07,11.10
2010,08,31,08,08,11.10
2010,08,31,08,09,11.10
2010,08,31,08,10,11.10
2010,08,31,08,11,11.10
2010,08,31,08,12,11.10
2010,08,31,08,13,11.10
2010,08,31,08,14,11.10
2010,08,31,08,15,11.10
2010,08,31,08,16,11.10
2010,08,31,08,17,11.10
2010,08,31,08,18,11.10
2010,08,31,08,19,11.10
2010,08,31,08,20,11.10
2010,08,31,08,21,11.10
2010,08,31,08,22,11.10
2010,08,31,08,23,11.10
2010,08,31,08,24,11.10
2010,08,31,08,25,11.10
2010,08,31,08,26,11.10
2010,08,31,08,27,11.20
2010,08,31,08,28,11.20
2010,08,31,08,29,11.20
2010,08,31,08,30,11.20
2010,08,31,08,31,11.20
2010,08,31,08,32,11.20
2010,08,31,08,33,11.20
2010,08,31,08,34,11.20
2010,08,31,08,35,11.20
2010,08,31,08,36,11.20
2010,08,31,08,37,11.20
2010,08,31,08,38,11.20
2010,08,31,08,39,11.20
2010,08,31,08,40,11.20
2010,08,31,08,41,11.20
2010,08,31,08,42,11.20
2010,08,31,08,43,11.20
2010,08,31,08,44,11.20
2010,08,31,08,45,11.20
2010,08,31,08,46,11.20
2010,08,31,08,47,11.20
2010,08,31,08,48,11.20
2010,08,31,08,49,11.20
2010,08,31,08,50,11.20
2010,08,31,08,51,11.20
2010,08,31,08,52,11.10
2010,08,31,08,53,11.10
2010,08,31,08,54,11.10
2010,08,31,08,55,11.10
2010,08,31,08,56,11.10
2010,08,31,08,57,11.10
2010,08,31,08,58,11.20
2010,08,31,08,59,11.20
2010,08,31,09,00,11.20
2010,08,31,09,01,11.20
2010,08,31,09,02,11.20
2010,08,31,09,03,11.20
2010,08,31,09,04,11.20
2010,08,31,09,05,11.20
2010,08,31,09,06,11.20
2010,08,31,09,07,11.20
2010,08,31,09,08,11.30
2010,08,31,09,09,11.30
2010,08,31,09,10,11.30
2010,08,31,09,11,11.30
2010,08,31,09,12,11.30
2010,08,31,09,13,11.30
2010,08,31,09,14,11.30
2010,08,31,09,15,11.30
2010,08,31,09,16,11.30
2010,08,31,09,17,11.30
2010,08,31,09,18,11.30
2010,08,31,09,19,11.30
2010,08,31,09,20,11.30
2010,08,31,09,21,11.30
2010,08,31,09,22,11.30
2010,08,31,09,23,11.30
2010,08,31,09,24,11.30
2010,08,31,09,25,11.30
2010,08,31,09,26,11.30
2010,08,31,09,27,11.30
2010,08,31,09,28,11.30
2010,08,31,09,29,11.30
2010,08,31,09,30,11.30
2010,08,31,09,31,11.30
2010,08,31,09,32,11.30
2010,08,31,09,33,11.30
2010,08,31,09,34,11.40
2010,08,31,09,35,11.40
2010,08,31,09,36,11.40
2010,08,31,09,37,11.40
2010,08,31,09,38,11.40
2010,08,31,09,39,11.40
2010,08,31,09,40,11.40
2010,08,31,09,41,11.40
2010,08,31,09,42,11.40
2010,08,31,09,43,11.40
2010,08,31,09,44,11.50
2010,08,31,09,45,11.60
2010,08,31,09,46,11.60
2010,08,31,09,47,11.60
2010,08,31,09,48,11.60
2010,08,31,09,49,11.60
2010,08,31,09,50,11.60
2010,08,31,09,51,11.60
2010,08,31,09,52,11.60
2010,08,31,09,53,11.60
2010,08,31,09,54,11.60
2010,08,31,09,55,11.60
2010,08,31,09,56,11.60
2010,08,31,09,57,11.60
2010,08,31,09,58,11.60
2010,08,31,09,59,11.60
2010,08,31,10,00,11.70
2010,08,31,10,01,11.70
2010,08,31,10,02,11.70
2010,08,31,10,03,11.70
2010,08,31,10,04,11.60
2010,08,31,10,05,11.60
2010,08,31,10,06,11.60
2010,08,31,10,07,11.60
2010,08,31,10,08,11.60
2010,08,31,10,09,11.70
2010,08,31,10,10,11.70
2010,08,31,10,11,11.70
2010,08,31,10,12,11.80
2010,08,31,10,13,11.80
2010,08,31,10,14,11.80
2010,08,31,10,15,11.80
2010,08,31,10,16,11.80
2010,08,31,10,17,11.80
2010,08,31,10,18,11.80
2010,08,31,10,19,11.80
2010,08,31,10,20,11.80
2010,08,31,10,21,11.90
2010,08,31,10,22,11.90
2010,08,31,10,23,11.90
2010,08,31,10,24,11.90
2010,08,31,10,25,11.90
2010,08,31,10,26,11.90
2010,08,31,10,27,11.90
2010,08,31,10,28,11.90
2010,08,31,10,29,12.00
2010,08,31,10,30,12.00
2010,08,31,10,31,12.00
2010,08,31,10,32,12.00
2010,08,31,10,33,12.00
2010,08,31,10,34,12.00
2010,08,31,10,35,12.10
2010,08,31,10,36,12.10
2010,08,31,10,37,12.10
2010,08,31,10,38,12.10
2010,08,31,10,39,12.10
2010,08,31,10,40,12.10
2010,08,31,10,41,12.10
2010,08,31,10,42,12.10
2010,08,31,10,43,12.10
2010,08,31,10,44,12.10
2010,08,31,10,45,12.10
2010,08,31,10,46,12.10
2010,08,31,10,47,12.10
2010,08,31,10,48,12.20
2010,08,31,10,49,12.20
2010,08,31,10,50,12.20
2010,08,31,10,51,12.20
2010,08,31,10,52,12.20
2010,08,31,10,53,12.20
2010,08,31,10,54,12.20
2010,08,31,10,55,12.20
2010,08,31,10,56,12.30
2010,08,31,10,57,12.30
2010,08,31,10,58,12.40
2010,08,31,10,59,12.40
2010,08,31,11,00,12.40
2010,08,31,11,01,12.40
2010,08,31,11,02,12.40
2010,08,31,11,03,12.40
2010,08,31,11,04,12.40
2010,08,31,11,05,12.30
2010,08,31,11,06,12.30
2010,08,31,11,07,12.30
2010,08,31,11,08,12.30
2010,08,31,11,09,12.40
2010,08,31,11,10,12.40
2010,08,31,11,11,12.40
2010,08,31,11,12,12.30
2010,08,31,11,13,12.30
2010,08,31,11,14,12.40
2010,08,31,11,15,12.40
2010,08,31,11,16,12.40
2010,08,31,11,17,12.50
2010,08,31,11,18,12.60
2010,08,31,11,19,12.60
2010,08,31,11,20,12.70
2010,08,31,11,21,12.70
2010,08,31,11,22,12.70
2010,08,31,11,23,12.80
2010,08,31,11,24,12.90
2010,08,31,11,25,13.00
2010,08,31,11,26,13.10
2010,08,31,11,27,13.10
2010,08,31,11,28,13.10
2010,08,31,11,29,13.20
2010,08,31,11,30,13.20
2010,08,31,11,31,13.30
2010,08,31,11,32,13.30
2010,08,31,11,33,13.30
2010,08,31,11,34,13.40
2010,08,31,11,35,13.40
2010,08,31,11,36,13.40
2010,08,31,11,37,13.40
2010,08,31,11,38,13.50
2010,08,31,11,39,13.50
2010,08,31,11,40,13.50
2010,08,31,11,41,13.60
2010,08,31,11,42,13.60
2010,08,31,11,43,13.60
2010,08,31,11,44,13.60
2010,08,31,11,45,13.60
2010,08,31,11,46,13.70
2010,08,31,11,47,13.70
2010,08,31,11,48,13.70
2010,08,31,11,49,13.60
2010,08,31,11,50,13.70
2010,08,31,11,51,13.70
2010,08,31,11,52,13.70
2010,08,31,11,53,13.70
2010,08,31,11,54,13.80
2010,08,31,11,55,13.80
2010,08,31,11,56,13.70
2010,08,31,11,57,13.80
2010,08,31,11,58,13.80
2010,08,31,11,59,13.80
2010,08,31,12,00,13.80
2010,08,31,12,01,13.70
2010,08,31,12,02,13.70
2010,08,31,12,03,13.80
2010,08,31,12,04,13.80
2010,08,31,12,05,13.80
2010,08,31,12,06,13.90
2010,08,31,12,07,13.90
2010,08,31,12,08,13.90
2010,08,31,12,09,14.00
2010,08,31,12,10,14.10
2010,08,31,12,11,14.20
2010,08,31,12,12,14.20
2010,08,31,12,13,14.20
2010,08,31,12,14,14.20
2010,08,31,12,15,14.20
2010,08,31,12,16,14.20
2010,08,31,12,17,14.20
2010,08,31,12,18,14.20
2010,08,31,12,19,14.20
2010,08,31,12,20,14.20
2010,08,31,12,21,14.20
2010,08,31,12,22,14.20
2010,08,31,12,23,14.20
2010,08,31,12,24,14.10
2010,08,31,12,25,14.00
2010,08,31,12,26,13.90
2010,08,31,12,27,13.90
2010,08,31,12,28,13.90
2010,08,31,12,29,13.90
2010,08,31,12,30,13.90
2010,08,31,12,31,13.80
2010,08,31,12,32,13.70
2010,08,31,12,33,13.70
2010,08,31,12,34,13.70
2010,08,31,12,35,13.70
2010,08,31,12,36,13.70
2010,08,31,12,37,13.70
2010,08,31,12,38,13.70
2010,08,31,12,39,13.70
2010,08,31,12,40,13.70
2010,08,31,12,41,13.70
2010,08,31,12,42,13.70
2010,08,31,12,43,13.70
2010,08,31,12,44,13.80
2010,08,31,12,45,13.80
2010,08,31,12,46,13.90
2010,08,31,12,47,13.90
2010,08,31,12,48,13.90
2010,08,31,12,49,13.90
2010,08,31,12,50,13.90
2010,08,31,12,51,13.90
2010,08,31,12,52,13.80
2010,08,31,12,53,13.80
2010,08,31,12,54,13.70
2010,08,31,12,55,13.70
2010,08,31,12,56,13.70
2010,08,31,12,57,13.70
2010,08,31,12,58,13.70
2010,08,31,12,59,13.70
2010,08,31,13,00,13.70
2010,08,31,13,01,13.70
2010,08,31,13,02,13.70
2010,08,31,13,03,13.80
2010,08,31,13,04,13.80
2010,08,31,13,05,13.80
2010,08,31,13,06,13.70
2010,08,31,13,07,13.60
2010,08,31,13,08,13.50
2010,08,31,13,09,13.50
2010,08,31,13,10,13.40
2010,08,31,13,11,13.30
2010,08,31,13,12,13.30
2010,08,31,13,13,13.30
2010,08,31,13,14,13.30
2010,08,31,13,15,13.30
2010,08,31,13,16,13.20
2010,08,31,13,17,13.10
2010,08,31,13,18,13.10
2010,08,31,13,19,13.00
2010,08,31,13,20,13.00
2010,08,31,13,21,12.90
2010,08,31,13,22,12.90
2010,08,31,13,23,12.90
2010,08,31,13,24,12.80
2010,08,31,13,25,12.80
2010,08,31,13,26,12.90
2010,08,31,13,27,12.90
2010,08,31,13,28,12.90
2010,08,31,13,29,13.00
2010,08,31,13,30,13.00
2010,08,31,13,31,13.00
2010,08,31,13,32,13.00
2010,08,31,13,33,13.10
2010,08,31,13,34,13.10
2010,08,31,13,35,13.10
2010,08,31,13,36,13.10
2010,08,31,13,37,13.10
2010,08,31,13,38,13.10
2010,08,31,13,39,13.10
2010,08,31,13,40,13.00
2010,08,31,13,41,13.00
2010,08,31,13,42,12.90
2010,08,31,13,43,12.90
2010,08,31,13,44,12.80
2010,08,31,13,45,12.80
2010,08,31,13,46,12.80
2010,08,31,13,47,12.80
2010,08,31,13,48,12.80
2010,08,31,13,49,12.80
2010,08,31,13,50,12.80
2010,08,31,13,51,12.80
2010,08,31,13,52,12.80
2010,08,31,13,53,12.70
2010,08,31,13,54,12.70
2010,08,31,13,55,12.80
2010,08,31,13,56,12.80
2010,08,31,13,57,12.70
2010,08,31,13,58,12.70
2010,08,31,13,59,12.70
2010,08,31,14,00,12.70
2010,08,31,14,01,12.70
2010,08,31,14,02,12.70
2010,08,31,14,03,12.70
2010,08,31,14,04,12.70
2010,08,31,14,05,12.70
2010,08,31,14,06,12.60
2010,08,31,14,07,12.50
2010,08,31,14,08,12.60
2010,08,31,14,09,12.60
2010,08,31,14,10,12.60
2010,08,31,14,11,12.60
2010,08,31,14,12,12.60
2010,08,31,14,13,12.60
2010,08,31,14,14,12.60
2010,08,31,14,15,12.60
2010,08,31,14,16,12.70
2010,08,31,14,17,12.70
2010,08,31,14,18,12.70
2010,08,31,14,19,12.70
2010,08,31,14,20,12.70
2010,08,31,14,21,12.70
2010,08,31,14,22,12.70
2010,08,31,14,23,12.70
2010,08,31,14,24,12.70
2010,08,31,14,25,12.70
2010,08,31,14,26,12.60
2010,08,31,14,27,12.60
2010,08,31,14,28,12.70
2010,08,31,14,29,12.70
2010,08,31,14,30,12.70
2010,08,31,14,31,12.70
2010,08,31,14,32,12.70
2010,08,31,14,33,12.70
2010,08,31,14,34,12.80
2010,08,31,14,35,12.80
2010,08,31,14,36,12.80
2010,08,31,14,37,12.80
2010,08,31,14,38,12.70
2010,08,31,14,39,12.70
2010,08,31,14,40,12.60
2010,08,31,14,41,12.60
2010,08,31,14,42,12.60
2010,08,31,14,43,12.60
2010,08,31,14,44,12.60
2010,08,31,14,45,12.60
2010,08,31,14,46,12.70
2010,08,31,14,47,12.70
2010,08,31,14,48,12.70
2010,08,31,14,49,12.60
2010,08,31,14,50,12.60
2010,08,31,14,51,12.60
2010,08,31,14,52,12.60
2010,08,31,14,53,12.60
2010,08,31,14,54,12.60
2010,08,31,14,55,12.60
2010,08,31,14,56,12.70
2010,08,31,14,57,12.70
2010,08,31,14,58,12.70
2010,08,31,14,59,12.80
2010,08,31,15,00,12.80
2010,08,31,15,01,12.80
2010,08,31,15,02,12.80
2010,08,31,15,03,12.80
2010,08,31,15,04,12.80
2010,08,31,15,05,12.80
2010,08,31,15,06,12.70
2010,08,31,15,07,12.70
2010,08,31,15,08,12.70
2010,08,31,15,09,12.70
2010,08,31,15,10,12.70
2010,08,31,15,11,12.70
2010,08,31,15,12,12.70
2010,08,31,15,13,12.70
2010,08,31,15,14,12.70
2010,08,31,15,15,12.70
2010,08,31,15,16,12.70
2010,08,31,15,17,12.70
2010,08,31,15,18,12.70
2010,08,31,15,19,12.70
2010,08,31,15,20,12.80
2010,08,31,15,21,12.80
2010,08,31,15,22,12.80
2010,08,31,15,23,12.90
2010,08,31,15,24,12.90
2010,08,31,15,25,12.90
2010,08,31,15,26,12.90
2010,08,31,15,27,12.90
2010,08,31,15,28,12.90
2010,08,31,15,29,12.90
2010,08,31,15,30,12.90
2010,08,31,15,31,12.90
2010,08,31,15,32,12.90
2010,08,31,15,33,12.80
2010,08,31,15,34,12.80
2010,08,31,15,35,12.80
2010,08,31,15,36,12.80
2010,08,31,15,37,12.80
2010,08,31,15,38,12.80
2010,08,31,15,39,12.80
2010,08,31,15,40,12.80
2010,08,31,15,41,12.90
2010,08,31,15,42,12.90
2010,08,31,15,43,12.90
2010,08,31,15,44,12.90
2010,08,31,15,45,12.90
2010,08,31,15,46,13.00
2010,08,31,15,47,13.00
2010,08,31,15,48,13.00
2010,08,31,15,49,13.00
2010,08,31,15,50,13.00
2010,08,31,15,51,13.00
2010,08,31,15,52,13.00
2010,08,31,15,53,12.90
2010,08,31,15,54,12.90
2010,08,31,15,55,12.90
2010,08,31,15,56,12.90
2010,08,31,15,57,12.90
2010,08,31,15,58,12.90
2010,08,31,15,59,12.90
2010,08,31,16,00,12.90
2010,08,31,16,01,12.80
2010,08,31,16,02,12.80
2010,08,31,16,03,12.80
2010,08,31,16,04,12.80
2010,08,31,16,05,12.80
2010,08,31,16,06,12.80
2010,08,31,16,07,12.80
2010,08,31,16,08,12.80
2010,08,31,16,09,12.80
2010,08,31,16,10,12.70
2010,08,31,16,11,12.70
2010,08,31,16,12,12.70
2010,08,31,16,13,12.70
2010,08,31,16,14,12.80
2010,08,31,16,15,12.80
2010,08,31,16,16,12.90
2010,08,31,16,17,12.90
2010,08,31,16,18,12.90
2010,08,31,16,19,12.90
2010,08,31,16,20,12.80
2010,08,31,16,21,12.80
2010,08,31,16,22,12.80
2010,08,31,16,23,12.80
2010,08,31,16,24,12.80
2010,08,31,16,25,12.80
2010,08,31,16,26,12.80
2010,08,31,16,27,12.80
2010,08,31,16,28,12.80
2010,08,31,16,29,12.80
2010,08,31,16,30,12.80
2010,08,31,16,31,12.80
2010,08,31,16,32,12.80
2010,08,31,16,33,12.80
2010,08,31,16,34,12.80
2010,08,31,16,35,12.80
2010,08,31,16,36,12.70
2010,08,31,16,37,12.70
2010,08,31,16,38,12.70
2010,08,31,16,39,12.70
2010,08,31,16,40,12.70
2010,08,31,16,41,12.80
2010,08,31,16,42,12.80
2010,08,31,16,43,12.90
2010,08,31,16,44,12.90
2010,08,31,16,45,12.90
2010,08,31,16,46,12.90
2010,08,31,16,47,12.90
2010,08,31,16,48,12.90
2010,08,31,16,49,12.90
2010,08,31,16,50,12.90
2010,08,31,16,51,12.80
2010,08,31,16,52,12.80
2010,08,31,16,53,12.80
2010,08,31,16,54,12.70
2010,08,31,16,55,12.70
2010,08,31,16,56,12.70
2010,08,31,16,57,12.80
2010,08,31,16,58,12.80
2010,08,31,16,59,12.80
2010,08,31,17,00,12.80
2010,08,31,17,01,12.80
2010,08,31,17,02,12.80
2010,08,31,17,03,12.70
2010,08,31,17,04,12.70
2010,08,31,17,05,12.70
2010,08,31,17,06,12.70
2010,08,31,17,07,12.70
2010,08,31,17,08,12.70
2010,08,31,17,09,12.70
2010,08,31,17,10,12.70
2010,08,31,17,11,12.80
2010,08,31,17,12,12.80
2010,08,31,17,13,12.80
2010,08,31,17,14,12.80
2010,08,31,17,15,12.90
2010,08,31,17,16,12.90
2010,08,31,17,17,13.00
2010,08,31,17,18,13.00
2010,08,31,17,19,13.10